Santa Fe, NM

1:27 AM MDT on July 22, 2017 (GMT -0600)
Santa Fe Municipal

Weather History for KSAF - June, 2013

Change the Weather History Date:

Sunday, June 16, 2013

  Actual Average Record
Temperature  
Mean Temperature 75 °F -  
Max Temperature 91 °F 90 °F 96 °F (2017)
Min Temperature 60 °F 49 °F 42 °F (1997)
Cooling Degree Days 10    
Growing Degree Days 25 (Base 50)    
Moisture  
Dew Point 33 °F    
Average Humidity 22    
Maximum Humidity 38    
Minimum Humidity 11    
Precipitation  
Precipitation 0.00 in - - ()
Sea Level Pressure  
Sea Level Pressure 29.85 in    
Wind  
Wind Speed 9 mph (West)    
Max Wind Speed 29 mph    
Max Gust Speed 47 mph    
Visibility 10 miles    
Events      
Averages and records for this station are not official NWS values.
T = Trace of Precipitation, MM = Missing Value Source: NWS Daily Summary

Daily Weather History Graph

Daily Weather History Graph

Search for Another Location

Airport or City:

Trip Planner

Search our weather history database for the weather conditions in past years. The results will help you decide how hot, cold, wet, or windy it might be!

Date:

Astronomy

Jun. 16, 2013 Rise Set
Actual Time 5:48 AM MDT 8:22 PM MDT
Civil Twilight 5:18 AM MDT 8:52 PM MDT
Nautical Twilight 4:41 AM MDT 9:29 PM MDT
Astronomical Twilight 3:59 AM MDT 10:10 PM MDT
Moon 1:12 PM MDT (6/16) 12:41 AM MDT (6/16)
Length of Visible Light 15h 33m
Length of Day
14h 33m
Waxing Crescent, 50% of the Moon is Illuminated
Jun 16
Waxing Crescent
Jun 23
Full
Jun 29
Last Quarter
Jul 8
New
Jul 15
First Quarter

Hourly Weather History & Observations

Time (MDT) Temp. Dew Point Humidity Pressure Visibility Wind Dir Wind Speed Gust Speed Precip Events Conditions
12:53 AM 69.1 °F 34.0 °F 27% 29.88 in 10.0 mi North 9.2 mph - N/A   Clear
1:53 AM 66.9 °F 34.0 °F 30% 29.87 in 10.0 mi NW 8.1 mph - N/A   Mostly Cloudy
2:53 AM 70.0 °F 37.0 °F 30% 29.84 in 10.0 mi West 10.4 mph - N/A   Partly Cloudy
3:53 AM 69.1 °F 37.0 °F 31% 29.83 in 10.0 mi NE 8.1 mph - N/A   Partly Cloudy
4:53 AM 64.9 °F 36.0 °F 34% 29.84 in 10.0 mi Calm Calm - N/A   Clear
5:53 AM 60.1 °F 34.0 °F 38% 29.89 in 10.0 mi North 8.1 mph - N/A   Clear
6:53 AM 63.0 °F 35.1 °F 35% 29.90 in 10.0 mi North 6.9 mph - N/A   Clear
7:53 AM 72.0 °F 35.1 °F 26% 29.90 in 10.0 mi North 11.5 mph - N/A   Clear
8:53 AM 75.9 °F 36.0 °F 23% 29.92 in 10.0 mi North 8.1 mph - N/A   Clear
9:53 AM 78.1 °F 35.1 °F 21% 29.90 in 10.0 mi Calm Calm - N/A   Clear
10:53 AM 80.1 °F 37.0 °F 21% 29.91 in 10.0 mi Variable 6.9 mph - N/A   Clear
11:53 AM 82.0 °F 35.1 °F 18% 29.90 in 10.0 mi SW 8.1 mph - N/A   Clear
12:53 PM 86.0 °F 30.9 °F 14% 29.87 in 10.0 mi Variable 4.6 mph 17.3 mph N/A   Clear
1:53 PM 89.1 °F 28.9 °F 12% 29.83 in 10.0 mi WSW 17.3 mph 28.8 mph N/A   Clear
2:53 PM 89.1 °F 30.0 °F 12% 29.80 in 10.0 mi West 8.1 mph 25.3 mph N/A   Clear
3:53 PM 90.0 °F 28.0 °F 11% 29.78 in 10.0 mi SW 15.0 mph 24.2 mph N/A   Clear
4:53 PM 88.0 °F 27.0 °F 11% 29.78 in 10.0 mi West 11.5 mph - N/A   Partly Cloudy
5:53 PM 84.0 °F 32.0 °F 15% 29.82 in 3.0 mi SSW 28.8 mph 47.2 mph N/A   Haze
6:53 PM 81.0 °F 34.0 °F 18% 29.85 in 10.0 mi WSW 17.3 mph 28.8 mph N/A   Clear
7:53 PM 80.1 °F 30.9 °F 17% 29.83 in 10.0 mi SW 11.5 mph - N/A   Clear
8:53 PM 77.0 °F 30.9 °F 19% 29.83 in 10.0 mi SW 11.5 mph - N/A   Clear
9:53 PM 75.0 °F 32.0 °F 21% 29.85 in 10.0 mi WSW 8.1 mph - N/A   Clear
10:53 PM 73.9 °F 34.0 °F 23% 29.85 in 10.0 mi WSW 6.9 mph - N/A   Clear
11:53 PM 72.0 °F 34.0 °F 25% 29.85 in 10.0 mi NNE 4.6 mph - N/A   Clear